Regional Weather Roundup
Issued by NWS

Home | Current Version | Previous Version | Text Only | Print | Product List | Glossary Off
Versions: 1 2 3 4 5 6 7 8 9 10 11 12 13 14 15 16 17 18 19 20 21 22 23 24 25 26 27 28 29 30 31 32 33 34 35 36 37 38 39 40 41 42 43 44 45 46 47 48 49 50

000
ASUS43 KMKX 201310
RWRWI

WISCONSIN REGIONAL WEATHER ROUNDUP
NATIONAL WEATHER SERVICE MILWAUKEE/SULLIVAN WI
700 AM CST TUE FEB 20 2018

NOTE: "FAIR" INDICATES FEW OR NO CLOUDS BELOW 12,000 FEET WITH NO
SIGNIFICANT WEATHER AND/OR OBSTRUCTIONS TO VISIBILITY.

WIZ001-002-006>008-014>016-023>028-201400-
NORTHWEST WISCONSIN

CITY           SKY/WX    TMP DP  RH WIND       PRES   REMARKS
SUPERIOR ARPT  LGT SNOW  16  13  88 NE7       29.90F WCI   6
ASHLAND        LGT SNOW  20  18  92 NE12      29.85F FOG     WCI   8
HAYWARD        LGT SNOW  19  16  88 NE6       29.81S FOG     WCI  11
SIREN          CLOUDY    19  17  90 NE5       29.84F WCI  12
CUMBERLAND     CLOUDY    19  16  86 N3        29.81F
RICE LAKE      LGT SNOW  19  18  93 N3        29.82F
CHETEK         LGT SNOW  19  18  93 CALM      29.80S
LADYSMITH      CLOUDY    21  19  93 NW5       29.81S WCI  14
EAU CLAIRE     CLOUDY    21  19  92 N6        29.80F WCI  13
MENOMONIE      CLOUDY    22  19  91 NW6       29.81F WCI  14
NEW RICHMOND   CLOUDY    19  17  88 N6        29.83S WCI  11
OSCEOLA        CLOUDY    20  18  92 N5        29.86F WCI  14
$$

WIZ003>005-009-010-017-018-201400-
NORTH CENTRAL WISCONSIN

CITY           SKY/WX    TMP DP  RH WIND       PRES   REMARKS
MANITOWISH WTR CLOUDY    19  19 100 CALM      29.78R
ARBOR VITAE    CLOUDY    22  21  94 CALM      29.76R
WOODRUFF       CLOUDY    22  21  94 CALM      29.76R
RHINELANDER    CLOUDY    24  23  96 CALM      29.75R
EAGLE RIVER    CLOUDY    22  22 100 E5        29.72F WCI  16
LAND O LAKES   LGT SNOW  22  21  96 CALM      29.75F
PHILLIPS       CLOUDY    19  19 100 CALM      29.76F
TOMAHAWK       CLOUDY    24  22  94 CALM      29.76F
MEDFORD        MIX PCPN  26  25  96 CALM      29.75F
MERRILL        CLOUDY    28  27  99 CALM      29.76R FOG
$$

WIZ029-030-035-036-043>047-201400-
CENTRAL WISCONSIN

CITY           SKY/WX    TMP DP  RH WIND       PRES   REMARKS
WAUSAU         CLOUDY    28  27  96 W3        29.76R FOG
MOSINEE        CLOUDY    28  28 100 CALM      29.78R
MARSHFIELD     CLOUDY    29  28  96 S5        29.75S WCI  24
STEVENS POINT  MIX PCPN  28  28 100 CALM      29.79R
WAUPACA        MIX PCPN  32  31  95 E6        29.77F WCI  27
WAUTOMA        FRZ RAIN  31  30  96 E3        29.78S
WISC RAPIDS    CLOUDY    30  28  92 CALM      29.80R
CAMP DOUGLAS   CLOUDY    32  32 100 CALM      29.79R
$$

WIZ011>013-019>022-031-037>040-048>050-201400-
NORTHEAST WISCONSIN

CITY           SKY/WX    TMP DP  RH WIND       PRES   REMARKS
ANTIGO         MIX PCPN  25  25 100 SE6       29.74R WCI  18
SHAWANO        MIX PCPN  32  30  94 CALM      29.77F
OCONTO         CLOUDY    29  28  96 NE5       29.81F WCI  24
STURGEON BAY   LGT SNOW  29  28  96 NW12      29.82R FOG     WCI  19
GREEN BAY      MIX PCPN  31  29  92 E7        29.82F WCI  24
MANITOWOC      MIX PCPN  32  32 100 W3        29.84F
APPLETON       RAIN      30  30 100 E6        29.78F HAZE    WCI  24
CLINTONVILLE   MIX PCPN  31  30  95 SE3       29.77F
OSHKOSH        MIX PCPN  31  30  96 E8        29.77F WCI  23
$$

WIZ032>034-041-042-053>061-201400-
SOUTHWEST WISCONSIN

CITY           SKY/WX    TMP DP  RH WIND       PRES   REMARKS
LA CROSSE      CLOUDY    32  29  88 CALM      29.80S
SPARTA         CLOUDY    30  30  99 CALM      29.80S
VIROQUA        CLOUDY    32  32 100 CALM      29.76F
BOSCOBEL       CLOUDY    35  33  92 CALM      29.84R
PRAIRIE DU CHI DRIZZLE   34  33  96 CALM      29.81F
PLATTEVILLE    CLOUDY    34  34 100 SW5       29.81R WCI  30
$$

WIZ056-057-062-063-064-067-068-201400-
SOUTH CENTRAL WISCONSIN

CITY           SKY/WX    TMP DP  RH WIND       PRES   REMARKS
REEDSBURG      CLOUDY    32  32 100 CALM      29.78R
BARABOO/DELLS  CLOUDY    31  31  99 CALM      29.77R
LONE ROCK      CLOUDY    34  33  96 CALM      29.82R
MINERAL POINT  CLOUDY    36  36 100 S6        29.79R WCI  31
MADISON        LGT RAIN  33  32  96 SE7       29.79F FOG     WCI  27
MIDDLETON      CLOUDY    34  34 100 CALM      29.79R
WATERTOWN      MIX PCPN  32  32 100 E9        29.78F WCI  24
MONROE         LGT RAIN  36  36 100 E6        29.78S WCI  31
JANESVILLE     DRIZZLE   39  39 100 NE5       29.81F
$$

WIZ051-052-058>065-066-070>072-201400-
SOUTHEAST WISCONSIN

CITY           SKY/WX    TMP DP  RH WIND       PRES   REMARKS
MILWAUKEE      LGT RAIN  42  41  96 N6        29.83R VSB 1/2
WAUKESHA       CLOUDY    37  37 100 W14G21    29.85R WCI  29
MILWAUKEE/TIMM DRIZZLE   41  37  87 W8        29.85R
RACINE         LGT RAIN  52  52 100 SW9       29.82R
BURLINGTON     LGT RAIN  47  46  97 NW13      29.82R
KENOSHA        CLOUDY    56  54  93 SW14      29.81R
FOND DU LAC    FRZ RAIN  32  29  88 E7        29.78F WCI  26
SHEBOYGAN      RAIN      33  33 100 CALM      29.83F FOG
WEST BEND      LGT RAIN  34  34 100 CALM      29.81F
JUNEAU         MIX PCPN  31  31  99 E9        29.77F WCI  23
$$

LSZ147-162-201400-
LAKE SUPERIOR

STATION/POSITION TIME  TEMP    WIND        PRES    WAVE
                       AIR SEA DIR/SP/G            HT/PER
                 (UTC) (F)     (DEG/KT/KT) (MB)    (FT/S)
DEVILS ISLAND    1300   20      30/ 22/ 27 1012.7F
SAXON HARBOR     1240   21      50/  7/  8 1010.8R
$$

LMZ867-665-643>646-201400-
LAKE MICHIGAN

STATION/POSITION TIME  TEMP    WIND        PRES    WAVE
                       AIR SEA DIR/SP/G            HT/PER
                 (UTC) (F)     (DEG/KT/KT) (MB)    (FT/S)
NORTHPORT PIER   1240   32                 1009.5R
KEWAUNEE LAKESHO 1242   32     290/  5/  7 1009.5R
SHEBOYGAN LAKESH 1300   34      10/  2/  2 1010.9R
PORT WASHINGTON  1240   37     290/  7/ 20 1011.9R
MILWAUKEE LAKESH 1250   39     310/  7/  9   N/A
KENOSHA   LAKESH 1300   58     220/  7/ 13 1009.5
$$

TC  - TEMPERATURE IN CELSIUS
VSB - VISIBILITY IN STATUTE MILES
WCI - WIND CHILL INDEX
HX  - HEAT INDEX





USA.gov is the U.S. government's official web portal to all federal, state and local government web resources and services.